Location: Aalsum
(53.3404°N, 6.0062°E)
Time: 09:49:00
(UTC+00:00)

PAYLOAD B - Pass Details

Date: 28 January 2023
Orbit: 849 x 871 km, 99.1° (Epoch: 19 March)

Event Time Altitude Azimuth Distance (km) Brightness Sun altitude
Rises 18:01:45 0° 163° (SSE) 3,425 7.3 -16.3°
Reaches altitude 10° 18:04:07 10° 164° (SSE) 2,489 6.6 -16.7°
Maximum altitude 18:09:39 85° 253° (WSW) 866 4.2 -17.5°
Drops below altitude 10° 18:15:13 10° 343° (NNW) 2,494 6.8 -18.3°
Sets 18:17:35 0° 344° (NNW) 3,432 7.5 -18.7°
